Temp
17 16 16 18 18 17 17 16 17 16 16 15 14 14 14 14 14 13 13 14 14 14 14 14 14 14 13 13 13 13 13 11 10 10 8 8 8 8 8 7 7 7 7
18 15 14 15 15 15 15 15 15 13 13 14 13 14 14 13 15 14 13 13 14 14 14 13 13 13 13 12 12 12 11 11 10 13 11 9 7 6 6 6 6 6 6
16 15 12 12 13 14 14 13 13 13 13 14 15 14 13 12 12 12 13 13 12 12 13 13 13 12 12 12 12 11 12 12 10 11 13 11 12 7 4 4 4 5 5
16 13 12 12 12 12 13 13 13 13 14 15 16 15 15 13 13 13 13 13 13 12 12 12 12 12 11 11 11 11 11 11 11 9 10 10 10 12 6 3 2 3 3
15 13 11 11 12 12 12 13 14 15 15 15 15 15 15 14 14 13 13 15 14 14 13 12 12 11 11 11 10 10 10 10 10 11 9 8 8 8 8 5 2 1 1
15 14 12 12 12 12 13 13 15 14 15 15 16 17 17 16 14 15 15 15 14 13 12 12 11 11 11 10 10 10 10 9 9 9 9 10 10 9 8 7 4 4 1
16 16 15 14 13 13 13 13 14 14 14 13 13 13 14 13 13 15 15 14 14 13 12 12 12 11 10 10 9 9 9 9 9 8 8 8 9 9 8 7 5 4 1
16 16 15 14 14 13 14 14 14 14 15 16 16 15 15 14 14 14 14 13 13 12 12 12 11 11 10 9 9 8 8 8 8 8 8 7 7 7 8 8 6 5 3
16 15 15 14 14 13 13 13 14 14 15 16 15 15 14 14 14 14 13 13 13 12 12 11 11 10 9 8 8 8 8 8 7 7 6 6 7 7 6 6 7 9 6
16 16 15 15 14 13 14 14 14 15 15 15 14 14 14 13 13 13 13 12 12 12 11 11 10 9 8 7 7 7 6 6 6 6 6 5 4 4 4 5 6 6 7
17 17 16 15 15 16 16 15 15 15 15 14 14 13 13 13 12 12 12 12 11 11 11 10 9 8 8 7 7 6 6 5 5 4 4 4 4 3 3 3 4 5 5
17 17 16 16 15 15 14 14 14 13 13 12 12 12 12 12 11 11 11 11 11 10 10 10 9 8 8 7 7 6 5 5 4 3 3 2 2 2 1 2 2 3 2
16 16 15 15 15 15 14 12 12 11 11 11 12 12 11 11 11 11 10 10 10 10 9 9 8 7 6 6 5 5 4 3 3 3 2 1 1 1 1 1 1 1 1
17 17 16 15 14 12 12 11 11 11 10 10 10 10 10 10 10 10 9 9 9 9 8 8 7 6 5 5 5 4 3 3 2 2 1 -0 -1 -1 -0 -0 -0 0 -0
15 15 14 13 12 11 10 9 10 10 10 9 9 8 8 8 8 8 8 7 7 7 7 6 5 5 4 4 3 3 2 1 1 0 -1 -1 -1 -1 -1 -2 -2 -2 -2
14 12 11 10 10 9 9 7 7 8 8 8 7 7 8 7 7 6 6 6 5 4 4 3 3 3 3 3 2 2 1 -0 -1 -3 -3 -4 -3 -2 -2 -3 -3 -4 -2
12 11 9 8 7 6 6 6 6 7 7 7 7 7 6 6 5 5 4 4 3 2 2 2 2 2 2 1 1 0 -0 -1 -3 -3 -3 -4 -4 -4 -4 -4 -4 -3 -2
10 9 8 6 5 5 5 5 5 5 6 6 6 5 5 5 4 4 4 4 2 1 1 1 1 1 0 -0 0 -1 -2 -3 -3 -4 -4 -5 -5 -5 -5 -5 -5 -5 -4
9 8 7 6 5 4 4 3 3 3 3 3 5 5 4 4 4 4 3 2 1 -0 -0 -0 -0 -0 -1 -1 -1 -2 -3 -4 -5 -5 -5 -5 -6 -6 -6 -7 -7 -7 -8
8 7 5 5 5 4 3 2 1 1 2 2 2 3 3 3 3 3 1 -0 -1 -1 -1 -1 -1 -1 -2 -3 -3 -3 -4 -5 -6 -7 -7 -6 -6 -8 -8 -8 -8 -8 -9
7 6 5 5 5 3 3 1 0 0 1 1 1 2 2 3 2 0 -1 -1 -1 -2 -2 -2 -3 -3 -3 -3 -4 -3 -4 -5 -6 -6 -7 -8 -8 -8 -9 -9 -9 -9 -9
6 5 5 4 4 3 2 0 0 1 -0 0 1 -0 -1 -1 -1 -1 -1 -2 -2 -3 -3 -4 -4 -4 -3 -4 -5 -4 -4 -5 -6 -6 -7 -7 -8 -8 -9 -9 -9 -9 -9
6 5 5 4 3 2 2 1 1 0 0 -0 -0 -1 -1 -2 -2 -2 -2 -3 -3 -4 -4 -4 -4 -4 -5 -5 -5 -5 -5 -5 -6 -7 -7 -7 -8 -9 -9 -9 -10 -10 -10
4 5 4 4 4 2 2 1 1 1 1 -0 -1 -1 -2 -2 -2 -2 -3 -3 -4 -4 -4 -4 -4 -5 -5 -5 -6 -6 -6 -6 -7 -7 -7 -8 -8 -9 -9 -10 -10 -10 -10
4 4 3 4 4 2 1 1 1 -0 -0 -1 -1 -2 -2 -3 -3 -3 -4 -4 -4 -4 -4 -4 -5 -5 -5 -6 -6 -6 -6 -7 -7 -7 -8 -9 -9 -9 -10 -11 -10 -10 -10
5 4 3 3 2 1 1 0 -1 -1 -1 -2 -2 -3 -3 -3 -4 -4 -5 -4 -5 -5 -5 -5 -5 -5 -5 -6 -6 -6 -7 -7 -8 -8 -8 -9 -9 -9 -10 -10 -11 -11 -10
Height
782 777 770 764 765 771 776 780 786 792 794 799 805 810 815 815 814 824 828 829 832 834 834 836 836 838 840 840 840 840 841 845 848 848 854 855 856 858 857 859 860 861 862
781 779 775 771 769 772 776 782 785 793 798 800 806 811 812 817 811 824 826 831 830 834 836 837 838 835 840 840 839 838 838 842 844 847 852 857 861 860 861 861 861 862 864
786 784 783 781 780 778 780 782 786 791 799 802 806 812 815 816 817 821 824 828 833 835 835 837 835 837 838 838 838 838 837 838 841 842 844 851 849 858 863 863 862 863 864
787 788 788 787 785 786 787 789 792 796 800 804 803 806 810 813 822 822 819 823 828 833 834 835 834 832 834 836 836 835 836 837 838 839 839 841 844 847 860 864 865 863 863
790 789 790 790 790 789 789 792 795 799 799 801 805 807 809 813 820 817 817 818 821 825 830 833 831 830 831 831 833 834 834 834 836 837 838 838 841 844 846 855 862 863 863
793 793 793 793 793 793 793 795 796 801 801 803 803 803 803 807 812 812 814 815 818 824 828 829 829 828 829 830 831 830 832 832 832 833 835 835 835 837 842 848 855 857 860
793 793 793 794 794 795 796 798 798 799 803 804 807 809 810 811 813 814 814 815 817 820 824 826 826 827 827 828 829 831 829 829 828 829 833 832 832 833 834 840 847 851 858
796 795 795 796 796 796 797 799 799 800 801 803 805 807 810 811 812 813 813 814 816 818 821 822 822 824 825 826 827 828 829 827 827 826 828 828 829 831 832 833 838 848 853
797 797 799 799 796 799 798 799 799 800 801 802 804 806 808 811 811 812 811 812 813 815 817 818 820 821 823 825 825 823 824 825 825 825 827 826 825 826 829 830 832 832 840
794 795 796 797 797 796 796 798 797 798 800 801 802 804 806 808 809 811 811 811 812 812 813 815 816 818 820 822 823 824 824 825 824 822 822 824 825 826 827 827 827 830 831
789 790 792 794 794 793 792 793 793 796 797 798 797 799 802 805 807 808 809 809 810 810 810 810 812 813 815 818 819 821 823 824 823 822 823 822 823 824 827 828 828 828 829
785 787 789 790 790 790 791 792 794 796 798 800 800 799 800 802 805 805 806 807 806 806 807 807 808 809 811 814 816 818 820 820 820 821 822 823 824 824 825 827 828 829 829
784 784 785 786 786 787 789 792 793 795 798 800 800 799 799 801 803 804 805 805 803 804 804 805 806 807 808 811 814 816 818 819 820 820 821 823 825 827 825 825 828 829 829
778 779 780 782 783 785 785 788 790 792 794 797 799 800 800 800 802 804 804 803 802 802 803 803 803 805 806 808 810 812 814 817 820 820 821 822 824 826 826 827 825 827 830
776 776 777 779 779 780 781 784 786 788 790 792 795 797 797 797 798 800 801 802 800 801 802 800 800 801 803 805 808 810 811 815 817 819 821 821 823 824 825 827 827 828 830
772 774 776 776 778 779 781 784 787 789 791 794 794 795 795 796 797 798 798 798 799 799 800 800 800 800 802 804 806 808 810 814 816 818 821 821 821 822 824 825 826 828 830
769 773 776 778 779 780 779 780 783 786 788 790 789 790 793 794 795 795 795 795 796 797 798 798 798 800 801 803 805 808 810 811 815 816 819 821 820 821 822 824 824 824 826
772 775 778 780 779 781 781 778 778 782 784 785 787 788 791 791 794 794 793 793 793 795 797 797 797 799 801 803 805 807 809 811 813 815 816 819 819 820 820 821 822 824 824
773 776 777 778 780 782 785 784 778 774 780 784 785 787 789 790 792 791 790 791 792 793 795 796 797 799 800 803 805 807 808 811 813 814 815 817 818 819 819 820 822 824 824
772 774 776 777 779 780 780 788 784 782 780 782 784 786 787 789 789 788 788 789 791 793 794 795 797 799 801 803 805 808 809 811 813 815 815 817 818 818 820 821 823 824 825
768 770 771 773 776 775 776 783 780 782 783 784 783 784 787 787 787 787 788 789 791 793 795 796 798 800 802 803 805 807 808 811 813 814 815 818 819 820 822 823 824 825 825
763 768 769 770 771 774 775 779 777 774 780 782 782 785 785 786 786 786 787 790 792 794 796 797 799 801 802 804 805 806 808 810 812 814 815 818 820 823 824 825 825 826 829
758 764 768 770 771 774 772 772 775 776 775 779 782 783 785 787 787 786 788 790 792 794 796 798 800 802 803 805 806 807 809 811 812 813 816 819 822 824 827 828 827 829 832
757 760 763 765 767 769 769 771 772 773 773 776 780 782 784 786 787 786 788 790 792 793 796 798 800 802 804 806 807 808 810 812 813 815 818 821 824 827 828 830 831 832 834
755 756 758 761 762 763 764 768 769 771 772 774 777 780 782 784 785 786 788 790 791 793 795 797 798 800 803 805 807 808 810 811 813 816 820 823 827 829 831 832 833 834 836
750 753 755 756 758 760 761 764 766 769 769 772 775 778 780 782 784 786 788 790 791 792 794 795 797 799 802 805 807 809 810 812 815 819 822 825 828 830 832 833 835 837 840
Wind_Speed
13 15 16 8 4 9 14 20 21 26 29 25 22 19 14 12 9 7 8 8 7 5 3 3 3 4 5 6 6 6 8 8 12 13 12 15 14 14 15 14 15 15 15
14 18 18 12 9 11 12 15 20 20 20 22 18 15 18 11 13 4 4 6 11 10 7 5 5 4 8 8 8 9 10 7 15 7 8 3 4 9 9 12 12 14 13
12 13 15 13 11 13 14 16 19 20 18 22 19 18 14 12 10 9 6 4 3 6 6 7 6 8 9 9 8 9 11 10 18 13 6 3 4 6 3 6 10 12 12
10 9 10 11 12 15 12 14 16 22 21 17 14 10 10 9 6 7 8 5 0 6 8 7 6 5 7 8 8 9 11 11 14 12 13 5 7 4 3 4 5 9 10
7 8 8 7 7 9 13 16 23 21 19 16 12 12 12 8 3 6 4 2 5 7 9 8 7 6 7 8 8 9 11 14 10 14 11 7 6 6 4 4 8 5 6
7 7 6 6 6 8 12 20 22 18 16 14 13 14 15 14 15 9 9 9 9 10 10 8 7 7 8 9 9 9 10 11 13 13 14 12 9 12 6 3 8 11 8
5 5 6 6 7 8 11 13 15 14 11 8 5 5 6 9 8 7 7 7 8 11 10 9 7 7 7 8 9 10 10 10 11 13 14 14 12 7 11 8 8 7 7
4 4 4 3 6 7 10 11 12 10 11 10 10 9 10 11 10 9 9 9 10 10 9 10 10 9 8 8 9 9 10 9 9 10 14 12 13 14 12 11 14 5 5
4 3 2 1 2 6 8 9 10 9 10 10 9 11 12 13 12 11 11 12 12 12 11 11 12 11 11 10 10 9 9 9 8 8 9 8 11 14 14 13 17 10 7
2 1 0 2 4 6 8 12 12 12 11 10 10 10 11 11 11 11 11 11 11 11 11 12 11 11 11 10 9 8 8 8 7 7 7 7 7 6 8 11 15 12 10
5 2 3 5 7 9 12 14 14 14 12 10 7 6 6 6 7 7 8 9 11 12 12 12 11 11 11 11 9 8 8 7 6 5 5 4 5 3 3 6 8 8 7
8 5 6 7 7 10 11 12 13 13 9 6 4 3 2 0 2 4 6 8 8 10 11 10 12 13 14 14 13 11 9 8 6 5 4 3 2 3 1 0 2 4 2
7 7 7 8 10 12 13 8 6 4 4 2 2 2 3 3 3 4 6 7 7 8 9 10 11 12 14 14 12 11 9 8 7 6 5 4 2 1 3 3 1 1 2
7 8 8 10 11 12 10 5 4 3 2 2 2 3 3 2 3 5 6 6 6 7 8 10 11 11 12 14 14 14 12 10 8 6 6 4 3 2 1 0 2 1 2
7 7 6 7 11 8 2 4 5 5 4 5 4 4 4 3 3 4 5 5 6 7 9 9 9 9 12 15 17 16 16 13 10 9 7 5 6 5 6 3 3 6 5
7 4 4 3 3 3 5 6 5 5 5 4 4 5 5 4 3 2 3 5 5 5 5 6 7 7 10 14 16 17 14 11 9 8 7 5 3 3 4 7 7 7 9
3 2 1 4 5 6 7 7 5 3 2 2 4 4 5 3 3 3 4 4 2 2 4 5 5 7 8 11 14 13 11 11 10 10 8 6 4 4 5 6 6 7 12
4 4 4 6 5 4 4 5 3 1 2 2 3 4 4 4 3 3 4 3 1 1 3 4 6 7 8 10 11 10 12 11 11 10 8 7 6 6 5 4 5 6 7
6 7 7 5 5 3 2 2 3 4 3 2 1 2 2 1 2 3 1 2 1 2 3 5 5 8 10 7 7 11 12 11 9 7 6 6 7 6 7 8 10 10 9
9 8 6 5 5 3 3 1 3 4 4 2 1 1 2 1 3 3 0 0 2 4 5 6 6 7 9 10 9 11 10 10 9 7 7 5 5 6 7 9 11 12 8
9 7 8 7 7 8 6 6 5 3 1 2 2 3 2 1 3 2 2 3 5 6 6 7 7 8 10 12 9 10 10 10 10 10 8 6 6 7 8 9 9 11 13
8 8 8 8 9 10 9 7 6 4 3 3 3 4 3 3 5 5 6 6 7 7 7 7 7 6 9 13 7 5 8 10 11 11 9 10 8 8 9 10 13 15 16
9 8 6 3 5 8 8 7 5 4 4 4 5 5 5 4 5 8 8 7 7 6 6 6 7 8 8 7 7 5 9 10 11 11 11 11 11 11 11 12 13 16 12
6 7 6 8 8 9 9 6 6 7 7 8 8 8 8 8 8 7 6 6 6 7 7 8 8 9 9 9 9 12 10 10 10 13 13 14 13 12 13 12 12 12 11
9 9 8 9 8 10 10 10 9 9 10 10 10 11 11 10 8 6 5 5 5 6 8 8 9 11 10 10 10 9 9 10 14 17 17 13 13 11 11 11 11 12 11
9 10 10 8 7 10 11 11 9 11 11 10 10 10 10 9 8 8 7 6 4 5 5 6 9 9 9 11 10 8 9 11 15 12 13 12 11 10 11 10 10 9 9
Wind_Direction
339 350 345 340 190 192 173 180 189 177 178 156 146 141 140 132 75 21 14 7 4 356 343 283 249 238 235 215 202 180 167 150 145 120 94 103 118 128 134 136 130 128 127
356 5 10 39 87 120 153 163 170 165 156 143 135 137 137 120 111 72 27 351 353 344 328 304 256 272 256 250 227 200 174 169 175 163 133 145 93 86 105 129 131 135 130
359 8 12 30 68 102 134 148 150 153 140 129 119 117 111 110 119 136 116 49 325 303 312 302 303 263 248 245 240 224 199 184 191 176 171 162 181 132 84 108 137 141 140
23 25 28 43 73 96 119 134 140 133 134 133 131 137 127 131 186 164 137 126 154 300 303 285 278 266 263 259 249 236 225 210 202 202 209 194 148 172 154 125 127 144 147
33 33 34 57 88 114 127 134 136 144 150 147 141 137 139 130 206 173 155 192 217 235 250 276 287 283 264 254 256 249 238 226 223 218 199 190 178 169 148 160 168 152 150
44 53 63 85 96 115 131 144 150 159 166 171 166 156 154 173 201 188 186 193 207 233 253 270 290 293 278 272 261 252 250 244 234 232 225 206 189 186 169 136 169 173 169
78 81 87 106 123 137 150 159 164 170 180 184 199 212 201 210 216 207 213 218 226 237 245 263 282 284 280 271 270 266 259 254 242 238 242 236 226 206 188 154 161 167 168
66 72 88 116 146 165 174 180 184 187 196 206 218 226 229 231 236 239 242 246 250 252 258 271 279 271 265 260 260 267 272 270 265 251 238 236 239 234 212 184 164 161 176
65 48 51 225 225 228 216 208 206 215 220 223 233 244 249 250 252 256 256 257 256 256 259 265 264 258 254 255 257 255 259 262 261 257 255 243 236 231 225 216 201 187 181
113 95 259 268 238 225 228 235 227 228 233 243 249 259 260 259 263 268 270 270 264 258 264 270 266 258 251 250 257 268 273 270 259 244 237 244 254 253 239 222 209 209 182
182 188 281 271 252 252 237 238 237 238 240 239 235 239 250 261 265 273 281 282 280 280 280 275 273 262 253 249 249 254 258 254 252 252 243 232 229 228 249 235 218 206 185
185 212 255 277 275 268 270 267 262 257 259 258 225 185 152 310 304 306 296 291 289 287 281 280 275 261 248 241 240 244 246 240 229 225 225 222 203 147 139 191 222 210 195
210 234 253 273 280 291 288 279 277 264 242 233 173 105 67 32 354 321 305 301 301 297 290 285 277 262 244 234 230 225 222 217 208 199 192 195 183 186 148 132 3 36 162
267 286 290 301 305 297 282 236 189 155 129 68 55 69 71 46 331 309 301 295 292 292 288 281 277 265 247 233 224 214 204 195 192 198 196 191 175 192 248 219 159 214 104
259 275 312 315 309 302 243 175 156 135 119 112 113 90 73 48 7 326 318 304 290 279 270 256 245 241 237 227 213 203 189 190 205 193 200 193 215 230 239 206 173 170 146
248 298 328 356 359 98 117 105 100 83 72 69 62 37 18 11 13 13 12 344 312 289 262 231 218 210 218 224 216 198 193 208 193 161 159 149 155 196 214 204 187 195 207
300 319 105 98 100 101 117 116 117 106 84 45 20 4 354 8 35 45 38 10 330 251 222 211 210 213 207 207 196 201 211 183 175 167 163 158 170 175 176 200 195 211 207
182 137 127 139 137 134 134 136 122 62 26 23 22 27 34 61 44 27 19 339 55 234 225 199 190 194 192 200 212 202 185 174 176 177 180 190 191 198 207 200 181 188 184
153 175 176 149 135 113 62 47 80 100 87 18 114 122 107 0 291 322 333 343 56 155 177 178 184 183 176 189 187 178 168 165 164 174 190 204 199 208 207 166 148 128 113
182 175 159 151 157 156 120 110 107 106 105 114 71 170 141 295 291 291 194 177 164 168 163 163 171 178 177 180 187 188 166 156 150 144 143 155 164 155 173 162 154 138 130
190 187 177 181 195 179 169 166 148 131 179 193 206 191 186 308 258 185 166 155 151 150 151 155 158 176 188 180 203 205 183 167 159 155 147 146 139 140 154 157 155 147 132
177 195 193 199 192 189 181 169 164 170 181 201 218 244 219 210 178 162 145 148 157 157 155 147 143 153 174 180 187 198 200 175 160 154 149 146 141 140 147 143 142 139 133
200 208 215 207 195 204 196 177 196 178 163 194 214 215 206 201 184 161 158 160 165 156 153 154 150 145 149 158 160 168 173 170 156 150 145 144 143 144 131 136 137 144 138
221 212 222 223 215 216 212 196 194 190 182 195 203 200 194 193 186 168 167 164 167 162 171 171 162 155 152 147 141 147 151 157 146 139 142 143 142 137 138 135 141 145 143
218 210 219 229 228 211 201 201 201 189 190 200 200 197 194 188 179 164 163 171 180 182 182 180 169 165 166 170 172 163 157 160 159 155 150 139 147 138 139 136 136 135 136
220 220 228 231 214 197 191 198 201 197 194 191 195 195 188 178 166 154 136 146 157 166 177 180 172 169 174 177 177 161 149 148 156 148 156 156 163 163 155 144 141 143 143